• In Uzbekistan
  • List of Countries
  • For 7 days
  • Water Temperature
  • Satellite Maps
  • Weather Map
  • Weather Widgets
  • user-avatar
    Login

    Hourly Weather Pietkow

    Today, 27 May, Monday

    Time Temperature Precipitation Wind Pressure Humidity
    00:00 +13°C° 0 mm 3 mps 740 mmHg 88%
    01:00 +13°C° 0 mm 3 mps 739 mmHg 89%
    02:00 +13°C° 0 mm 3 mps 739 mmHg 90%
    03:00 +13°C° 0 mm 3 mps 739 mmHg 91%
    04:00 +12°C° 0 mm 3 mps 739 mmHg 92%
    05:00 +14°C° 0 mm 3 mps 739 mmHg 86%
    06:00 +17°C° 0 mm 4 mps 739 mmHg 80%
    07:00 +19°C° 0 mm 4 mps 739 mmHg 74%
    08:00 +20°C° 0 mm 4 mps 739 mmHg 68%
    09:00 +22°C° 0 mm 5 mps 738 mmHg 62%
    10:00 +23°C° 0 mm 5 mps 738 mmHg 56%
    11:00 +25°C° 0.2 mm 5 mps 738 mmHg 56%
    12:00 +25°C° 0.2 mm 5 mps 738 mmHg 55%
    13:00 +25°C° 0.2 mm 4 mps 738 mmHg 55%
    14:00 +25°C° 0.4 mm 4 mps 737 mmHg 57%
    15:00 +25°C° 0.4 mm 4 mps 737 mmHg 58%
    16:00 +25°C° 0.4 mm 3 mps 737 mmHg 60%
    17:00 +24°C° 0.5 mm 3 mps 737 mmHg 65%
    18:00 +21°C° 0.5 mm 2 mps 737 mmHg 71%
    19:00 +20°C° 0.5 mm 2 mps 736 mmHg 77%
    20:00 +19°C° 0.7 mm 2 mps 736 mmHg 81%
    21:00 +19°C° 0.7 mm 2 mps 736 mmHg 84%
    22:00 +18°C° 0.7 mm 2 mps 736 mmHg 88%
    23:00 +18°C° 0.6 mm 2 mps 736 mmHg 89%

    Tomorrow, 28 May, Tuesday

    Time Temperature Precipitation Wind Pressure Humidity
    00:00 +17°C° 0.6 mm 3 mps 735 mmHg 91%
    01:00 +17°C° 0.6 mm 3 mps 735 mmHg 93%
    02:00 +17°C° 1.3 mm 3 mps 735 mmHg 93%
    03:00 +17°C° 1.3 mm 3 mps 734 mmHg 94%
    04:00 +16°C° 1.3 mm 2 mps 734 mmHg 94%
    05:00 +17°C° 0.2 mm 2 mps 734 mmHg 92%
    06:00 +17°C° 0.2 mm 2 mps 733 mmHg 90%
    07:00 +18°C° 0.2 mm 2 mps 733 mmHg 88%
    08:00 +19°C° 0.3 mm 3 mps 733 mmHg 83%
    09:00 +20°C° 0.3 mm 5 mps 733 mmHg 78%
    10:00 +21°C° 0.3 mm 6 mps 733 mmHg 73%
    11:00 +21°C° 0.5 mm 6 mps 733 mmHg 71%
    12:00 +22°C° 0.5 mm 5 mps 733 mmHg 69%
    13:00 +22°C° 0.5 mm 5 mps 733 mmHg 67%
    14:00 +21°C° 0.9 mm 4 mps 733 mmHg 71%
    15:00 +21°C° 0.9 mm 4 mps 734 mmHg 75%
    16:00 +20°C° 0.9 mm 3 mps 734 mmHg 79%
    17:00 +18°C° 1.3 mm 4 mps 734 mmHg 84%
    18:00 +16°C° 1.3 mm 5 mps 734 mmHg 88%
    19:00 +14°C° 1.3 mm 5 mps 735 mmHg 93%
    20:00 +14°C° 0.5 mm 6 mps 735 mmHg 93%
    21:00 +13°C° 0.5 mm 6 mps 736 mmHg 93%
    22:00 +11°C° 0.5 mm 6 mps 736 mmHg 93%
    23:00 +11°C° 0.5 mm 6 mps 737 mmHg 92%

    Day after tomorrow, 29 May, Wednesday

    Time Temperature Precipitation Wind Pressure Humidity
    00:00 +10°C° 0.5 mm 6 mps 737 mmHg 92%
    01:00 +10°C° 0.5 mm 6 mps 738 mmHg 92%
    02:00 +9°C° 0.5 mm 5 mps 738 mmHg 91%
    03:00 +9°C° 0.5 mm 5 mps 739 mmHg 91%
    04:00 +8°C° 0.5 mm 5 mps 739 mmHg 90%
    05:00 +8°C° 0.2 mm 5 mps 740 mmHg 89%
    06:00 +8°C° 0.2 mm 4 mps 740 mmHg 89%
    07:00 +7°C° 0.2 mm 4 mps 741 mmHg 88%
    08:00 +8°C° 0 mm 4 mps 741 mmHg 85%
    09:00 +10°C° 0 mm 4 mps 742 mmHg 83%
    10:00 +10°C° 0 mm 4 mps 742 mmHg 80%
    11:00 +11°C° 0 mm 4 mps 742 mmHg 75%
    12:00 +13°C° 0 mm 4 mps 743 mmHg 69%
    13:00 +14°C° 0 mm 4 mps 743 mmHg 64%
    14:00 +14°C° 0 mm 4 mps 743 mmHg 63%
    15:00 +15°C° 0 mm 4 mps 743 mmHg 62%
    16:00 +15°C° 0 mm 4 mps 743 mmHg 61%
    17:00 +14°C° 0 mm 4 mps 743 mmHg 65%
    18:00 +13°C° 0 mm 3 mps 743 mmHg 69%
    19:00 +12°C° 0 mm 3 mps 743 mmHg 74%
    20:00 +12°C° 0 mm 2 mps 743 mmHg 76%
    21:00 +10°C° 0 mm 2 mps 744 mmHg 79%
    22:00 +9°C° 0 mm 2 mps 744 mmHg 81%
    23:00 +9°C° 0 mm 2 mps 744 mmHg 81%

    30 May, Thursday

    Time Temperature Precipitation Wind Pressure Humidity
    00:00 +8°C° 0 mm 3 mps 744 mmHg 80%
    01:00 +8°C° 0 mm 3 mps 744 mmHg 79%
    02:00 +8°C° 0 mm 3 mps 744 mmHg 77%
    03:00 +7°C° 0 mm 2 mps 744 mmHg 76%
    04:00 +7°C° 0 mm 2 mps 744 mmHg 74%
    05:00 +8°C° 0.3 mm 2 mps 745 mmHg 76%
    06:00 +8°C° 0.3 mm 2 mps 745 mmHg 77%
    07:00 +9°C° 0.3 mm 1 mps 745 mmHg 79%
    08:00 +10°C° 0.2 mm 1 mps 745 mmHg 76%
    09:00 +10°C° 0.2 mm 1 mps 745 mmHg 73%
    10:00 +10°C° 0.2 mm 1 mps 745 mmHg 70%
    11:00 +11°C° 0 mm 1 mps 745 mmHg 63%
    12:00 +12°C° 0 mm 1 mps 745 mmHg 57%
    13:00 +14°C° 0 mm 1 mps 745 mmHg 51%
    14:00 +14°C° 0 mm 1 mps 745 mmHg 50%
    15:00 +15°C° 0 mm 1 mps 745 mmHg 49%
    16:00 +16°C° 0 mm 1 mps 745 mmHg 48%
    17:00 +15°C° 0 mm 1 mps 744 mmHg 54%
    18:00 +14°C° 0 mm 1 mps 744 mmHg 60%
    19:00 +13°C° 0 mm 1 mps 744 mmHg 65%
    20:00 +12°C° 0 mm 1 mps 744 mmHg 69%
    21:00 +11°C° 0 mm 1 mps 744 mmHg 73%
    22:00 +9°C° 0 mm 2 mps 744 mmHg 77%
    23:00 +9°C° 0 mm 2 mps 744 mmHg 81%

    31 May, Friday

    Time Temperature Precipitation Wind Pressure Humidity
    00:00 +8°C° 0 mm 2 mps 744 mmHg 85%
    01:00 +8°C° 0 mm 2 mps 743 mmHg 89%
    02:00 +8°C° 0 mm 2 mps 743 mmHg 90%
    03:00 +8°C° 0 mm 2 mps 743 mmHg 91%
    04:00 +8°C° 0 mm 3 mps 742 mmHg 92%
    05:00 +9°C° 0 mm 3 mps 742 mmHg 87%
    06:00 +11°C° 0 mm 3 mps 742 mmHg 82%
    07:00 +13°C° 0 mm 4 mps 742 mmHg 77%
    08:00 +15°C° 0 mm 4 mps 741 mmHg 73%
    09:00 +18°C° 0 mm 4 mps 741 mmHg 69%
    10:00 +20°C° 0 mm 4 mps 740 mmHg 66%
    11:00 +20°C° 0.5 mm 4 mps 740 mmHg 66%
    12:00 +21°C° 0.5 mm 5 mps 740 mmHg 66%
    13:00 +21°C° 0.5 mm 5 mps 740 mmHg 67%
    14:00 +16°C° 1.1 mm 6 mps 741 mmHg 74%
    15:00 +11°C° 1.1 mm 8 mps 742 mmHg 81%
    16:00 +5°C° 1.1 mm 9 mps 743 mmHg 88%
    17:00 +6°C° 0.7 mm 8 mps 744 mmHg 87%
    18:00 +7°C° 0.7 mm 6 mps 745 mmHg 85%
    19:00 +7°C° 0.7 mm 4 mps 746 mmHg 84%
    20:00 +7°C° 0 mm 5 mps 747 mmHg 81%
    21:00 +7°C° 0 mm 5 mps 748 mmHg 78%
    22:00 +7°C° 0 mm 6 mps 748 mmHg 75%
    23:00 +6°C° 0 mm 5 mps 748 mmHg 76%

    1 June, Saturday

    Time Temperature Precipitation Wind Pressure Humidity
    00:00 +5°C° 0 mm 5 mps 749 mmHg 77%
    01:00 +4°C° 0 mm 4 mps 749 mmHg 79%
    02:00 +4°C° 0 mm 4 mps 749 mmHg 81%
    03:00 +3°C° 0 mm 4 mps 749 mmHg 84%
    04:00 +3°C° 0 mm 4 mps 750 mmHg 87%
    05:00 +5°C° 0 mm 4 mps 750 mmHg 82%
    06:00 +6°C° 0 mm 4 mps 750 mmHg 78%
    07:00 +8°C° 0 mm 5 mps 750 mmHg 73%
    08:00 +9°C° 0 mm 5 mps 751 mmHg 67%
    09:00 +10°C° 0 mm 5 mps 751 mmHg 62%
    10:00 +13°C° 0 mm 5 mps 751 mmHg 56%
    11:00 +13°C° 0.1 mm 5 mps 751 mmHg 57%
    12:00 +13°C° 0.1 mm 5 mps 751 mmHg 58%
    13:00 +13°C° 0.1 mm 5 mps 751 mmHg 58%
    14:00 +14°C° 0.1 mm 5 mps 751 mmHg 59%
    15:00 +14°C° 0.1 mm 5 mps 751 mmHg 59%
    16:00 +14°C° 0.1 mm 5 mps 751 mmHg 59%
    17:00 +13°C° 0 mm 4 mps 751 mmHg 64%
    18:00 +12°C° 0 mm 4 mps 751 mmHg 68%
    19:00 +11°C° 0 mm 3 mps 751 mmHg 73%
    20:00 +10°C° 0 mm 3 mps 752 mmHg 77%
    21:00 +9°C° 0 mm 3 mps 752 mmHg 82%
    22:00 +8°C° 0 mm 3 mps 752 mmHg 86%
    23:00 +7°C° 0 mm 3 mps 752 mmHg 88%
    Show more